�������l�o���
Date,Time,MP-1(��Sv/h),MP-2(��Sv/h),MP-3(��Sv/h),MP-4(��Sv/h),MP-5(��Sv/h),MP-6(��Sv/h),MP-7(��Sv/h),MP-8(��Sv/h),����,����(m/s),���J
2019/09/08,00:00,0.753,1.068,0.737,1.304,0.971,0.429,0.741,0.698,��,5.1,��
2019/09/08,00:10,0.752,1.068,0.737,1.306,0.970,0.429,0.741,0.699,��,5.0,��
2019/09/08,00:20,0.753,1.069,0.737,1.304,0.970,0.429,0.740,0.698,��,5.7,��
2019/09/08,00:30,0.753,1.066,0.737,1.304,0.971,0.428,0.740,0.699,��,5.7,��
2019/09/08,00:40,0.753,1.066,0.735,1.307,0.972,0.428,0.741,0.698,��,6.0,��
2019/09/08,00:50,0.754,1.065,0.736,1.306,0.972,0.428,0.740,0.698,��,5.8,��
2019/09/08,01:00,0.751,1.064,0.736,1.305,0.970,0.428,0.739,0.698,��,5.8,��
2019/09/08,01:10,0.753,1.066,0.737,1.304,0.971,0.428,0.739,0.697,��,5.8,��
2019/09/08,01:20,0.752,1.068,0.736,1.308,0.971,0.427,0.740,0.700,��,5.8,��
2019/09/08,01:30,0.752,1.067,0.736,1.304,0.969,0.428,0.740,0.698,��,5.9,��
2019/09/08,01:40,0.752,1.067,0.738,1.305,0.972,0.429,0.740,0.699,��,6.7,��
2019/09/08,01:50,0.752,1.067,0.734,1.307,0.971,0.428,0.741,0.700,��,6.6,��
2019/09/08,02:00,0.752,1.066,0.734,1.307,0.970,0.428,0.739,0.699,��,6.7,��
2019/09/08,02:10,0.753,1.065,0.735,1.306,0.971,0.428,0.741,0.698,��,7.3,��
2019/09/08,02:20,0.752,1.066,0.736,1.306,0.969,0.428,0.741,0.699,��,7.2,��
2019/09/08,02:30,0.751,1.063,0.734,1.306,0.972,0.426,0.740,0.699,��,7.1,��
2019/09/08,02:40,0.752,1.066,0.734,1.306,0.973,0.428,0.742,0.699,��,6.7,��
2019/09/08,02:50,0.753,1.067,0.736,1.308,0.971,0.429,0.742,0.699,��,6.6,��
2019/09/08,03:00,0.753,1.063,0.737,1.306,0.971,0.429,0.741,0.699,��,6.6,��
2019/09/08,03:10,0.751,1.064,0.735,1.306,0.970,0.427,0.739,0.698,��,5.9,��
2019/09/08,03:20,0.750,1.065,0.733,1.306,0.971,0.426,0.740,0.698,��,6.1,��
2019/09/08,03:30,0.752,1.065,0.736,1.306,0.970,0.427,0.740,0.698,��,6.0,��
2019/09/08,03:40,0.751,1.063,0.735,1.307,0.970,0.428,0.739,0.699,��,5.4,��
2019/09/08,03:50,0.752,1.066,0.735,1.307,0.971,0.428,0.741,0.698,��,6.0,��
2019/09/08,04:00,0.752,1.064,0.737,1.305,0.971,0.428,0.741,0.699,��,5.5,��
2019/09/08,04:10,0.752,1.065,0.736,1.307,0.972,0.426,0.741,0.699,��,5.4,��
2019/09/08,04:20,0.753,1.063,0.735,1.305,0.972,0.427,0.741,0.698,��,5.6,��
2019/09/08,04:30,0.752,1.065,0.735,1.306,0.971,0.428,0.741,0.699,��,5.1,��
2019/09/08,04:40,0.751,1.066,0.736,1.306,0.971,0.427,0.741,0.698,��,4.2,��
2019/09/08,04:50,0.751,1.065,0.735,1.307,0.969,0.428,0.740,0.698,��,5.1,��
2019/09/08,05:00,0.752,1.063,0.734,1.305,0.971,0.428,0.740,0.698,��,4.0,��
2019/09/08,05:10,0.752,1.063,0.735,1.308,0.972,0.427,0.740,0.700,��,4.4,��
2019/09/08,05:20,0.752,1.063,0.734,1.303,0.970,0.428,0.742,0.698,��,4.5,��
2019/09/08,05:30,0.753,1.063,0.734,1.306,0.970,0.426,0.740,0.700,��,4.1,��
2019/09/08,05:40,0.751,1.067,0.735,1.304,0.970,0.427,0.742,0.697,��,3.8,��
2019/09/08,05:50,0.751,1.065,0.735,1.305,0.970,0.428,0.739,0.699,��쓌,3.8,��
2019/09/08,06:00,0.753,1.064,0.735,1.307,0.972,0.429,0.742,0.697,��쓌,3.6,��
2019/09/08,06:10,0.754,1.063,0.733,1.305,0.972,0.427,0.740,0.699,��,3.1,��
2019/09/08,06:20,0.752,1.063,0.733,1.306,0.970,0.428,0.740,0.698,��,3.2,��
2019/09/08,06:30,0.754,1.063,0.734,1.306,0.969,0.426,0.741,0.699,��,2.0,��
2019/09/08,06:40,0.753,1.064,0.735,1.305,0.969,0.428,0.740,0.701,��,2.5,��
2019/09/08,06:50,0.753,1.063,0.734,1.304,0.966,0.428,0.742,0.700,��쐼,2.3,��
2019/09/08,07:00,0.754,1.059,0.734,1.308,0.969,0.427,0.740,0.697,��,2.8,��
2019/09/08,07:10,0.755,1.064,0.734,1.304,0.970,0.428,0.741,0.699,��,2.3,��
2019/09/08,07:20,0.756,1.062,0.735,1.310,0.971,0.428,0.741,0.699,��쓌,3.8,��
2019/09/08,07:30,0.755,1.066,0.736,1.304,0.969,0.426,0.741,0.699,��,5.0,��
2019/09/08,07:40,0.755,1.064,0.735,1.308,0.972,0.427,0.744,0.700,��,7.1,��
2019/09/08,07:50,0.754,1.064,0.735,1.305,0.970,0.429,0.741,0.698,��,7.3,��
2019/09/08,08:00,0.754,1.063,0.735,1.306,0.971,0.428,0.743,0.699,��,6.9,��
2019/09/08,08:10,0.754,1.064,0.736,1.308,0.971,0.427,0.743,0.699,��,6.9,��
2019/09/08,08:20,0.755,1.064,0.736,1.306,0.972,0.427,0.743,0.701,��쓌,7.9,��
2019/09/08,08:30,0.753,1.067,0.735,1.305,0.971,0.427,0.743,0.701,��쓌,9.1,��
2019/09/08,08:40,0.753,1.066,0.735,1.306,0.970,0.429,0.741,0.698,��쓌,9.8,��
2019/09/08,08:50,0.754,1.068,0.736,1.306,0.973,0.428,0.743,0.698,��,10.0,��
2019/09/08,09:00,0.754,1.067,0.736,1.307,0.973,0.428,0.742,0.700,��쓌,10.7,��
2019/09/08,09:10,0.756,1.069,0.735,1.308,0.972,0.428,0.742,0.697,��쓌,12.4,��
2019/09/08,09:20,0.755,1.070,0.733,1.306,0.972,0.428,0.741,0.697,��쓌,12.1,��
2019/09/08,09:30,0.755,1.071,0.736,1.308,0.969,0.428,0.742,0.698,��쓌,12.4,��
2019/09/08,09:40,0.754,1.068,0.737,1.308,0.973,0.427,0.739,0.697,��쓌,11.1,��
2019/09/08,09:50,0.753,1.068,0.735,1.306,0.973,0.428,0.741,0.699,��쓌,13.9,��
2019/09/08,10:00,0.755,1.070,0.735,1.307,0.972,0.430,0.743,0.698,��쓌,11.6,��
2019/09/08,10:10,0.756,1.071,0.733,1.308,0.974,0.429,0.740,0.699,��쓌,11.1,��
2019/09/08,10:20,0.755,1.071,0.736,1.306,0.974,0.429,0.742,0.698,��쓌,12.1,��
2019/09/08,10:30,0.754,1.070,0.736,1.307,0.974,0.428,0.740,0.698,��쓌,12.4,��
2019/09/08,10:40,0.755,1.070,0.735,1.308,0.973,0.427,0.743,0.699,��쓌,11.8,��
2019/09/08,10:50,0.756,1.072,0.735,1.309,0.975,0.430,0.741,0.698,��쓌,11.7,��
2019/09/08,11:00,0.757,1.070,0.735,1.308,0.975,0.429,0.742,0.700,��쓌,11.3,��
2019/09/08,11:10,0.756,1.073,0.736,1.307,0.975,0.429,0.742,0.698,��쓌,11.6,��
2019/09/08,11:20,0.756,1.073,0.739,1.307,0.977,0.429,0.742,0.699,��쓌,11.6,��
2019/09/08,11:30,0.756,1.071,0.737,1.310,0.978,0.430,0.742,0.699,��쓌,11.3,��
2019/09/08,11:40,0.756,1.073,0.737,1.307,0.977,0.430,0.742,0.699,��쓌,11.8,��
2019/09/08,11:50,0.756,1.074,0.736,1.311,0.977,0.429,0.742,0.698,��쓌,12.5,��
2019/09/08,12:00,0.758,1.072,0.738,1.308,0.979,0.430,0.743,0.700,��쓌,12.4,��
2019/09/08,12:10,0.756,1.075,0.737,1.309,0.979,0.429,0.743,0.699,��쓌,13.3,��
2019/09/08,12:20,0.757,1.075,0.737,1.310,0.977,0.430,0.744,0.699,��쓌,13.0,��
2019/09/08,12:30,0.757,1.073,0.738,1.310,0.978,0.431,0.741,0.699,��쓌,13.6,��
2019/09/08,12:40,0.758,1.076,0.737,1.310,0.978,0.430,0.742,0.699,��쓌,13.3,��
2019/09/08,12:50,0.759,1.077,0.738,1.309,0.980,0.428,0.740,0.698,��쓌,13.3,��
2019/09/08,13:00,0.759,1.076,0.740,1.308,0.978,0.430,0.742,0.699,��쓌,12.8,��
2019/09/08,13:10,0.756,1.075,0.738,1.312,0.981,0.430,0.742,0.697,��쓌,12.2,��
2019/09/08,13:20,0.758,1.078,0.737,1.311,0.979,0.431,0.743,0.699,��쓌,12.2,��
2019/09/08,13:30,0.757,1.073,0.737,1.311,0.978,0.431,0.745,0.700,��쓌,13.8,��
2019/09/08,13:40,0.758,1.076,0.739,1.311,0.980,0.430,0.745,0.699,��쓌,13.6,��
2019/09/08,13:50,0.758,1.076,0.740,1.312,0.981,0.432,0.745,0.700,��쓌,13.5,��
2019/09/08,14:00,0.760,1.077,0.739,1.310,0.981,0.432,0.744,0.700,��쓌,13.6,��
2019/09/08,14:10,0.760,1.077,0.739,1.311,0.981,0.431,0.746,0.701,��쓌,11.8,��
2019/09/08,14:20,0.758,1.076,0.739,1.311,0.981,0.430,0.745,0.703,��쓌,11.3,��
2019/09/08,14:30,0.758,1.078,0.740,1.312,0.981,0.430,0.746,0.700,��,12.0,��
2019/09/08,14:40,0.757,1.077,0.739,1.311,0.979,0.430,0.745,0.703,��쓌,11.0,��
2019/09/08,14:50,0.757,1.077,0.740,1.314,0.980,0.430,0.746,0.702,��쓌,13.5,��
2019/09/08,15:00,0.758,1.078,0.739,1.312,0.981,0.430,0.746,0.699,��쓌,10.7,��
2019/09/08,15:10,0.758,1.078,0.739,1.312,0.982,0.431,0.746,0.701,��쓌,12.4,��
2019/09/08,15:20,0.758,1.078,0.739,1.311,0.982,0.432,0.747,0.699,��,11.7,��
2019/09/08,15:30,0.757,1.078,0.741,1.310,0.984,0.431,0.743,0.701,��쓌,12.2,��
2019/09/08,15:40,0.758,1.077,0.741,1.310,0.983,0.430,0.745,0.699,��쓌,11.6,��
2019/09/08,15:50,0.757,1.075,0.740,1.308,0.984,0.431,0.745,0.699,��쓌,11.7,��
2019/09/08,16:00,0.760,1.078,0.740,1.309,0.983,0.430,0.743,0.698,��쓌,11.3,��
2019/09/08,16:10,0.759,1.077,0.739,1.311,0.982,0.431,0.744,0.699,��쓌,11.3,��
2019/09/08,16:20,0.757,1.079,0.739,1.311,0.980,0.428,0.744,0.700,��쓌,11.8,��
2019/09/08,16:30,0.759,1.078,0.741,1.310,0.982,0.431,0.744,0.701,��,10.2,��
2019/09/08,16:40,0.759,1.079,0.739,1.311,0.982,0.430,0.745,0.699,��,8.4,��
2019/09/08,16:50,0.758,1.076,0.740,1.311,0.979,0.430,0.743,0.699,��쓌,10.0,��
2019/09/08,17:00,0.758,1.078,0.740,1.312,0.983,0.431,0.745,0.698,��,9.8,��
2019/09/08,17:10,0.760,1.078,0.740,1.309,0.982,0.431,0.742,0.699,��,10.3,��
2019/09/08,17:20,0.758,1.078,0.741,1.311,0.982,0.431,0.743,0.700,��쓌,10.3,��
2019/09/08,17:30,0.759,1.077,0.740,1.312,0.982,0.430,0.743,0.702,��쓌,9.4,��
2019/09/08,17:40,0.758,1.076,0.740,1.312,0.983,0.429,0.744,0.699,��쓌,10.5,��
2019/09/08,17:50,0.758,1.080,0.740,1.310,0.981,0.430,0.743,0.699,��,10.3,��
2019/09/08,18:00,0.757,1.076,0.738,1.312,0.980,0.431,0.743,0.699,��,8.7,��
2019/09/08,18:10,0.757,1.078,0.739,1.310,0.980,0.432,0.743,0.699,��,9.2,��
2019/09/08,18:20,0.757,1.076,0.740,1.312,0.980,0.430,0.744,0.700,��쓌,9.8,��
2019/09/08,18:30,0.758,1.079,0.738,1.311,0.980,0.430,0.742,0.699,��쓌,9.5,��
2019/09/08,18:40,0.757,1.079,0.740,1.311,0.984,0.429,0.744,0.701,��쓌,10.5,��
2019/09/08,18:50,0.758,1.080,0.740,1.312,0.982,0.431,0.745,0.700,��,10.7,��
2019/09/08,19:00,0.758,1.080,0.739,1.312,0.985,0.430,0.742,0.701,��,10.6,��
2019/09/08,19:10,0.757,1.080,0.741,1.315,0.982,0.431,0.744,0.700,��쓌,9.8,��
2019/09/08,19:20,0.758,1.078,0.742,1.314,0.983,0.432,0.745,0.699,��,8.6,��
2019/09/08,19:30,0.757,1.077,0.741,1.311,0.982,0.432,0.744,0.700,��,9.0,��
2019/09/08,19:40,0.756,1.078,0.742,1.312,0.984,0.432,0.744,0.700,��,8.0,��
2019/09/08,19:50,0.757,1.080,0.740,1.316,0.983,0.431,0.746,0.701,��,7.1,��
2019/09/08,20:00,0.759,1.080,0.740,1.316,0.983,0.430,0.743,0.700,��,6.6,��
2019/09/08,20:10,0.758,1.079,0.740,1.312,0.982,0.430,0.744,0.698,��,7.4,��
2019/09/08,20:20,0.758,1.079,0.742,1.314,0.983,0.431,0.743,0.700,��,6.6,��
2019/09/08,20:30,0.757,1.080,0.743,1.314,0.981,0.431,0.743,0.700,��,7.6,��
2019/09/08,20:40,0.758,1.079,0.741,1.314,0.982,0.430,0.744,0.699,��,7.5,��
2019/09/08,20:50,0.757,1.081,0.740,1.316,0.982,0.431,0.744,0.701,��,6.3,��
2019/09/08,21:00,0.757,1.079,0.740,1.315,0.984,0.431,0.744,0.699,��,6.4,��
2019/09/08,21:10,0.756,1.077,0.742,1.314,0.984,0.430,0.744,0.701,��,6.0,��
2019/09/08,21:20,0.757,1.079,0.741,1.316,0.981,0.430,0.745,0.701,��,6.6,��
2019/09/08,21:30,0.756,1.078,0.739,1.313,0.981,0.430,0.744,0.702,��,6.0,��
2019/09/08,21:40,0.758,1.077,0.743,1.314,0.981,0.431,0.744,0.701,��,4.6,��
2019/09/08,21:50,0.757,1.078,0.741,1.314,0.983,0.429,0.743,0.700,��쓌,3.9,��
2019/09/08,22:00,0.757,1.079,0.740,1.314,0.983,0.430,0.743,0.701,��쓌,3.9,�L
2019/09/08,22:10,0.760,1.075,0.738,1.312,0.979,0.429,0.744,0.701,��쓌,3.3,�L
2019/09/08,22:20,0.757,1.072,0.736,1.311,0.977,0.431,0.744,0.700,��쓌,4.1,��
2019/09/08,22:30,0.759,1.070,0.737,1.310,0.979,0.432,0.744,0.700,��쓌,5.1,��
2019/09/08,22:40,0.757,1.070,0.738,1.311,0.979,0.429,0.744,0.700,��쓌,3.5,��
2019/09/08,22:50,0.758,1.070,0.737,1.309,0.978,0.430,0.744,0.701,��쓌,3.4,�L
2019/09/08,23:00,0.756,1.069,0.737,1.310,0.978,0.430,0.744,0.699,��쓌,3.4,��
2019/09/08,23:10,0.757,1.068,0.737,1.309,0.978,0.432,0.744,0.700,��쓌,3.1,��
2019/09/08,23:20,0.760,1.068,0.737,1.309,0.979,0.430,0.744,0.700,��쓌,2.8,��
2019/09/08,23:30,0.758,1.069,0.736,1.312,0.981,0.430,0.744,0.700,�쓌,2.0,��
2019/09/08,23:40,0.759,1.070,0.736,1.309,0.979,0.431,0.742,0.700,�쓌,2.5,��
2019/09/08,23:50,0.758,1.069,0.736,1.309,0.976,0.430,0.745,0.700,���쓌,2.5,�L
